Location: Beaver Brook Station
(42.3793°N, 71.2203°W)
Time: 01:16:13
(UTC+00:00)

Cosmos 1553 Rocket - Pass Details

Date: 29 October 2020
Orbit: 940 x 1009 km, 82.9° (Epoch: 05 December)

Event Time Altitude Azimuth Distance (km) Brightness Sun altitude
Rises 22:53:38 0° 185° (S) 3,712 7.2 -13.9°
Reaches altitude 10° 22:56:09 10° 186° (S) 2,760 6.5 -14.3°
Maximum altitude 23:02:31 90° 275° (W) 995 4.0 -15.5°
Drops below altitude 10° 23:08:49 10° 8° (N) 2,735 6.2 -16.7°
Sets 23:11:19 0° 8° (N) 3,676 6.9 -17.1°
